Weather History for McAlester, OK

Change the Weather History Date:

Thursday, February 13, 2014

  Actual Average Record
Temperature  
Mean Temperature 41 °F -  
Max Temperature 61 °F 58 °F 85 °F (1962)
Min Temperature 21 °F 33 °F 10 °F (1958)
Degree Days  
Heating Degree Days 24    
Moisture  
Dew Point 28 °F    
Average Humidity 61    
Maximum Humidity 89    
Minimum Humidity 31    
Precipitation  
Precipitation 0.00 in - - ()
Sea Level Pressure  
Sea Level Pressure 29.94 in    
Wind  
Wind Speed 3 mph (SSW)    
Max Wind Speed 13 mph    
Max Gust Speed 20 mph    
Visibility 8 miles    
Events      
Averages and records for this station are not official NWS values.
T = Trace of Precipitation, MM = Missing Value Source: NWS Daily Summary

Daily Weather History Graph

Daily Weather History Graph

Search for Another Location

Airport:

Trip Planner

Search our weather history database for the weather conditions in past years. The results will help you decide how hot, cold, wet, or windy it might be!

Date:

Astronomy

Feb. 13, 2014 Rise Set
Actual Time 7:10 AM CST 6:04 PM CST
Civil Twilight 6:45 AM CST 6:30 PM CST
Nautical Twilight 6:15 AM CST 6:59 PM CST
Astronomical Twilight 5:45 AM CST 7:29 PM CST
Moon 5:13 PM CST (2/13) 6:04 AM CST (2/13)
Length of Visible Light 11h 45m
Length of Day
10h 53m
Waxing Gibbous, 99% of the Moon is Illuminated
Feb 13
Waxing Gibbous
Feb 14
Full
Feb 22
Last Quarter
Mar 1
New
Mar 8
First Quarter

Hourly Weather History & Observations

Time (CST) Temp. Windchill Dew Point Humidity Pressure Visibility Wind Dir Wind Speed Gust Speed Precip Events Conditions
12:53 AM 33.1 °F - 26.1 °F 75% 30.04 in 10.0 mi Calm Calm - N/A   Clear
1:53 AM 30.0 °F - 25.0 °F 82% 30.02 in 9.0 mi Calm Calm - N/A   Scattered Clouds
2:53 AM 27.0 °F - 23.0 °F 85% 30.02 in 6.0 mi Calm Calm - N/A   Partly Cloudy
3:53 AM 24.1 °F - 19.9 °F 84% 30.01 in 6.0 mi Calm Calm - N/A   Clear
4:53 AM 23.0 °F - 19.9 °F 88% 29.99 in 5.0 mi Calm Calm - N/A   Clear
5:53 AM 24.1 °F - 19.9 °F 84% 30.00 in 4.0 mi Calm Calm - N/A   Partly Cloudy
6:53 AM 21.9 °F - 19.0 °F 89% 29.99 in 5.0 mi Calm Calm - N/A   Scattered Clouds
7:53 AM 25.0 °F - 21.9 °F 88% 29.99 in 4.0 mi Calm Calm - N/A   Partly Cloudy
8:53 AM 32.0 °F - 28.0 °F 85% 30.03 in 5.0 mi Calm Calm - N/A   Clear
9:53 AM 39.9 °F 33.9 °F 28.9 °F 65% 30.04 in 10.0 mi SSW 9.2 mph - N/A   Clear
10:53 AM 46.0 °F 41.9 °F 30.0 °F 54% 30.01 in 10.0 mi SSW 8.1 mph - N/A   Partly Cloudy
11:53 AM 52.0 °F - 28.9 °F 41% 29.98 in 10.0 mi SW 12.7 mph - N/A   Partly Cloudy
12:53 PM 55.0 °F - 28.0 °F 35% 29.93 in 10.0 mi SW 12.7 mph 19.6 mph N/A   Partly Cloudy
1:53 PM 57.9 °F - 30.0 °F 35% 29.91 in 10.0 mi SW 10.4 mph - N/A   Partly Cloudy
2:53 PM 59.0 °F - 30.9 °F 35% 29.88 in 10.0 mi SSW 11.5 mph - N/A   Clear
3:53 PM 61.0 °F - 30.0 °F 31% 29.86 in 10.0 mi SW 11.5 mph - N/A   Partly Cloudy
4:53 PM 60.1 °F - 30.9 °F 33% 29.86 in 10.0 mi WSW 10.4 mph - N/A   Clear
5:53 PM 55.0 °F - 30.9 °F 40% 29.88 in 10.0 mi SSW 5.8 mph - N/A   Scattered Clouds
6:53 PM 50.0 °F - 30.9 °F 48% 29.88 in 10.0 mi South 3.5 mph - N/A   Partly Cloudy
7:53 PM 48.0 °F - 30.0 °F 50% 29.87 in 10.0 mi South 3.5 mph - N/A   Partly Cloudy
8:53 PM 46.9 °F - 30.9 °F 54% 29.88 in 10.0 mi SSW 3.5 mph - N/A   Partly Cloudy
9:53 PM 45.0 °F 42.6 °F 30.9 °F 58% 29.88 in 10.0 mi SSW 4.6 mph - N/A   Clear
10:53 PM 46.9 °F - 33.1 °F 59% 29.86 in 10.0 mi South 4.6 mph - N/A   Partly Cloudy
11:53 PM 48.9 °F - 35.1 °F 59% 29.82 in 10.0 mi South 5.8 mph - N/A   Mostly Cloudy